Overview Statistics Trail Chart Weather Telemetry Raw packets
 

This is the latest recevied weather packets stored in our database for station/object OH6GKW. If no packets are shown the sender has not sent any weather packets the latest 10 day(s).

<< 90 91 92 93 94 95 96 >>
Time Temp. Humidity Pressure Rain* Wind** Luminosity Snow
1787992411 17.22° C 87% 1013.2 hPa 0 mm - 192 W/m² -
1787992125 16.67° C 87% 1013.3 hPa 0 mm - 199 W/m² -
1787991820 16.67° C 87% 1013.3 hPa 0 mm - 183 W/m² -
1787991512 16.67° C 87% 1013.3 hPa 0 mm - 169 W/m² -
1787991229 16.67° C 88% 1013.3 hPa 0 mm - 155 W/m² -
1787990920 16.67° C 87% 1013.3 hPa 0 mm - 139 W/m² -
1787990615 16.67° C 88% 1013.3 hPa 0 mm - 120 W/m² -
1787990336 16.67° C 88% 1013.4 hPa 0 mm - 99 W/m² -
1787990032 16.67° C 87% 1013.4 hPa 0 mm - 104 W/m² -
1787989724 16.67° C 88% 1013.4 hPa 0 mm - 141 W/m² -
1787989417 16.67° C 88% 1013.7 hPa 0 mm - 220 W/m² -
1787989128 16.11° C 89% 1013.7 hPa 0 mm - 266 W/m² -
1787988822 16.11° C 89% 1013.7 hPa 0 mm - 273 W/m² -
1787988512 16.11° C 90% 1013.9 hPa 0 mm - 197 W/m² -
1787988236 16.11° C 89% 1013.9 hPa 0 mm - 83 W/m² -
1787987932 16.11° C 89% 1013.9 hPa 0 mm - 33 W/m² -
1787987623 16.11° C 89% 1014.1 hPa 0 mm - 55 W/m² -
1787987314 16.11° C 89% 1014.1 hPa 0 mm - 199 W/m² -
1787987029 16.11° C 89% 1014.1 hPa 0 mm - 216 W/m² -
1787986721 16.11° C 89% 1014 hPa 0 mm - 215 W/m² -
1787986414 16.11° C 89% 1014 hPa 0 mm - 195 W/m² -
1787986125 16.11° C 90% 1014 hPa 0 mm - 241 W/m² -
1787985813 15.56° C 91% 1014.1 hPa 0 mm - 222 W/m² -
1787985536 15.56° C 91% 1014.1 hPa 0 mm - 216 W/m² -
1787985234 15.56° C 91% 1014.1 hPa 0 mm - 153 W/m² -

* Rain since midnight (hover to see other rain measurements)
** Current wind speed in m/s (hover to see current wind gust speed)